Location: Kervinic
(48.4279°N, 4.7373°W)
Time: 10:18:07
(UTC+00:00)

Cosmos 1980 Rocket - Pass Details

Date: 09 April 2020
Orbit: 829 x 850 km, 71.0° (Epoch: 25 May)

Event Time Altitude Azimuth Distance (km) Brightness Sun altitude
Rises 23:19:28 0° 325° (NW) 3,390 6.4 -32.0°
Reaches altitude 10° 23:22:05 10° 317° (NW) 2,455 5.3 -32.1°
Enters shadow 23:25:53 31° 280° (W) 1,435 3.5 -32.3°
